Year,Month,Day,Hour,Minute,Value (Times are PST for temperature in C)
2012,11,19,00,00,-23.90
2012,11,19,00,01,-24.00
2012,11,19,00,02,-24.00
2012,11,19,00,03,-24.00
2012,11,19,00,04,-24.00
2012,11,19,00,05,-24.00
2012,11,19,00,06,-24.00
2012,11,19,00,07,-24.00
2012,11,19,00,08,-24.00
2012,11,19,00,09,-24.00
2012,11,19,00,10,-24.00
2012,11,19,00,11,-24.00
2012,11,19,00,12,-24.00
2012,11,19,00,13,-24.10
2012,11,19,00,14,-24.10
2012,11,19,00,15,-24.20
2012,11,19,00,16,-24.20
2012,11,19,00,17,-24.20
2012,11,19,00,18,-24.30
2012,11,19,00,19,-24.30
2012,11,19,00,20,-24.30
2012,11,19,00,21,-24.30
2012,11,19,00,22,-24.30
2012,11,19,00,23,-24.30
2012,11,19,00,24,-24.30
2012,11,19,00,25,-24.30
2012,11,19,00,26,-24.30
2012,11,19,00,27,-24.30
2012,11,19,00,28,-24.40
2012,11,19,00,29,-24.40
2012,11,19,00,30,-24.40
2012,11,19,00,31,-24.40
2012,11,19,00,32,-24.40
2012,11,19,00,33,-24.40
2012,11,19,00,34,-24.40
2012,11,19,00,35,-24.40
2012,11,19,00,36,-24.40
2012,11,19,00,37,-24.40
2012,11,19,00,38,-24.50
2012,11,19,00,39,-24.50
2012,11,19,00,40,-24.50
2012,11,19,00,41,-24.60
2012,11,19,00,42,-24.60
2012,11,19,00,43,-24.60
2012,11,19,00,44,-24.60
2012,11,19,00,45,-24.60
2012,11,19,00,46,-24.60
2012,11,19,00,47,-24.60
2012,11,19,00,48,-24.60
2012,11,19,00,49,-24.60
2012,11,19,00,50,-24.60
2012,11,19,00,51,-24.60
2012,11,19,00,52,-24.60
2012,11,19,00,53,-24.70
2012,11,19,00,54,-24.70
2012,11,19,00,55,-24.70
2012,11,19,00,56,-24.70
2012,11,19,00,57,-24.80
2012,11,19,00,58,-24.80
2012,11,19,00,59,-24.80
2012,11,19,01,00,-24.80
2012,11,19,01,01,-24.80
2012,11,19,01,02,-24.80
2012,11,19,01,03,-24.80
2012,11,19,01,04,-24.80
2012,11,19,01,05,-24.80
2012,11,19,01,06,-24.80
2012,11,19,01,07,-24.80
2012,11,19,01,08,-24.80
2012,11,19,01,09,-24.80
2012,11,19,01,10,-24.80
2012,11,19,01,11,-24.80
2012,11,19,01,12,-24.80
2012,11,19,01,13,-24.80
2012,11,19,01,14,-24.90
2012,11,19,01,15,-24.90
2012,11,19,01,16,-24.90
2012,11,19,01,17,-24.90
2012,11,19,01,18,-24.90
2012,11,19,01,19,-24.90
2012,11,19,01,20,-24.90
2012,11,19,01,21,-24.90
2012,11,19,01,22,-24.90
2012,11,19,01,23,-24.90
2012,11,19,01,24,-24.90
2012,11,19,01,25,-24.90
2012,11,19,01,26,-24.90
2012,11,19,13,36,-24.90
2012,11,19,13,37,-24.80
2012,11,19,13,38,-24.70
2012,11,19,13,39,-24.70
2012,11,19,13,40,-24.80
2012,11,19,13,41,-24.80
2012,11,19,13,42,-24.80
2012,11,19,13,43,-24.70
2012,11,19,13,44,-24.60
2012,11,19,13,45,-24.50
2012,11,19,13,46,-24.40
2012,11,19,13,47,-24.40
2012,11,19,13,48,-24.30
2012,11,19,13,49,-24.30
2012,11,19,13,50,-24.30
2012,11,19,13,51,-24.30
2012,11,19,13,52,-24.30
2012,11,19,13,53,-24.30
2012,11,19,13,54,-24.20
2012,11,19,13,55,-24.20
2012,11,19,13,56,-24.20
2012,11,19,13,57,-24.10
2012,11,19,13,58,-24.10
2012,11,19,13,59,-24.10
2012,11,19,14,00,-24.00
2012,11,19,14,01,-24.00
2012,11,19,14,02,-24.00
2012,11,19,14,03,-24.00
2012,11,19,14,04,-23.90
2012,11,19,14,05,-23.90
2012,11,19,14,06,-23.80
2012,11,19,14,07,-23.80
2012,11,19,14,08,-23.70
2012,11,19,14,09,-23.70
2012,11,19,14,10,-23.70
2012,11,19,14,11,-23.60
2012,11,19,14,12,-23.60
2012,11,19,14,13,-23.60
2012,11,19,14,14,-23.50
2012,11,19,14,15,-23.50
2012,11,19,14,16,-23.50
2012,11,19,14,17,-23.50
2012,11,19,14,18,-23.40
2012,11,19,14,19,-23.40
2012,11,19,14,20,-23.30
2012,11,19,14,21,-23.30
2012,11,19,14,22,-23.30
2012,11,19,14,23,-23.20
2012,11,19,14,24,-23.20
2012,11,19,14,25,-23.20
2012,11,19,14,26,-23.10
2012,11,19,14,27,-23.10
2012,11,19,14,28,-23.10
2012,11,19,14,29,-23.00
2012,11,19,14,30,-23.00
2012,11,19,14,31,-23.00
2012,11,19,14,32,-23.00
2012,11,19,14,33,-22.90
2012,11,19,14,34,-22.90
2012,11,19,14,35,-22.80
2012,11,19,14,36,-22.80
2012,11,19,14,37,-22.70
2012,11,19,14,38,-22.70
2012,11,19,14,39,-22.60
2012,11,19,14,40,-22.60
2012,11,19,14,41,-22.50
2012,11,19,14,42,-22.50
2012,11,19,14,43,-22.40
2012,11,19,14,44,-22.30
2012,11,19,14,45,-22.30
2012,11,19,14,46,-22.20
2012,11,19,14,47,-22.10
2012,11,19,14,48,-22.10
2012,11,19,14,49,-22.00
2012,11,19,14,50,-22.00
2012,11,19,14,51,-21.90
2012,11,19,14,52,-21.90
2012,11,19,14,53,-21.90
2012,11,19,14,54,-21.80
2012,11,19,14,55,-21.80
2012,11,19,14,56,-21.70
2012,11,19,14,57,-21.70
2012,11,19,14,58,-21.60
2012,11,19,14,59,-21.60
2012,11,19,15,00,-21.50
2012,11,19,15,01,-21.50
2012,11,19,15,02,-21.40
2012,11,19,15,03,-21.30
2012,11,19,15,04,-21.30
2012,11,19,15,05,-21.20
2012,11,19,15,06,-21.20
2012,11,19,15,07,-21.20
2012,11,19,15,08,-21.10
2012,11,19,15,09,-21.10
2012,11,19,15,10,-21.00
2012,11,19,15,11,-20.90
2012,11,19,15,12,-20.80
2012,11,19,15,13,-20.80
2012,11,19,15,14,-20.80
2012,11,19,15,15,-20.80
2012,11,19,15,16,-20.70
2012,11,19,15,17,-20.70
2012,11,19,15,18,-20.70
2012,11,19,15,19,-20.60
2012,11,19,15,20,-20.60
2012,11,19,15,21,-20.60
2012,11,19,15,22,-20.60
2012,11,19,15,23,-20.50
2012,11,19,15,24,-20.50
2012,11,19,15,25,-20.50
2012,11,19,15,26,-20.50
2012,11,19,15,27,-20.40
2012,11,19,15,28,-20.40
2012,11,19,15,29,-20.40
2012,11,19,15,30,-20.30
2012,11,19,15,31,-20.30
2012,11,19,15,32,-20.30
2012,11,19,15,33,-20.20
2012,11,19,15,34,-20.20
2012,11,19,15,35,-20.10
2012,11,19,15,36,-20.10
2012,11,19,15,37,-20.10
2012,11,19,15,38,-20.10
2012,11,19,15,39,-20.10
2012,11,19,15,40,-20.10
2012,11,19,15,41,-20.00
2012,11,19,15,42,-20.00
2012,11,19,15,43,-19.90
2012,11,19,15,44,-19.80
2012,11,19,15,45,-19.80
2012,11,19,15,46,-19.70
2012,11,19,15,47,-19.60
2012,11,19,15,48,-19.60
2012,11,19,15,49,-19.60
2012,11,19,15,50,-19.50
2012,11,19,15,51,-19.50
2012,11,19,15,52,-19.50
2012,11,19,15,53,-19.40
2012,11,19,15,54,-19.40
2012,11,19,15,55,-19.40
2012,11,19,15,56,-19.30
2012,11,19,15,57,-19.20
2012,11,19,15,58,-19.20
2012,11,19,15,59,-19.10
2012,11,19,16,00,-19.00
2012,11,19,16,01,-19.00
2012,11,19,16,02,-18.90
2012,11,19,16,03,-18.90
2012,11,19,16,04,-18.90
2012,11,19,16,05,-18.90
2012,11,19,16,06,-18.80
2012,11,19,16,07,-18.80
2012,11,19,16,08,-18.80
2012,11,19,16,09,-18.70
2012,11,19,16,10,-18.70
2012,11,19,16,11,-18.70
2012,11,19,16,12,-18.70
2012,11,19,16,13,-18.60
2012,11,19,16,14,-18.60
2012,11,19,16,15,-18.60
2012,11,19,16,16,-18.50
2012,11,19,16,17,-18.50
2012,11,19,16,18,-18.50
2012,11,19,16,19,-18.50
2012,11,19,16,20,-18.50
2012,11,19,16,21,-18.40
2012,11,19,16,22,-18.40
2012,11,19,16,23,-18.40
2012,11,19,16,24,-18.40
2012,11,19,16,25,-18.30
2012,11,19,16,26,-18.30
2012,11,19,16,27,-18.20
2012,11,19,16,28,-18.20
2012,11,19,16,29,-18.10
2012,11,19,16,30,-18.10
2012,11,19,16,31,-18.00
2012,11,19,16,32,-18.00
2012,11,19,16,33,-18.00
2012,11,19,16,34,-17.90
2012,11,19,16,35,-17.90
2012,11,19,16,36,-17.90
2012,11,19,16,37,-17.90
2012,11,19,16,38,-17.80
2012,11,19,16,39,-17.70
2012,11,19,16,40,-17.70
2012,11,19,16,41,-17.60
2012,11,19,16,42,-17.60
2012,11,19,16,43,-17.50
2012,11,19,16,44,-17.50
2012,11,19,16,45,-17.50
2012,11,19,16,46,-17.50
2012,11,19,16,47,-17.50
2012,11,19,16,48,-17.50
2012,11,19,16,49,-17.40
2012,11,19,16,50,-17.40
2012,11,19,16,51,-17.40
2012,11,19,16,52,-17.30
2012,11,19,16,53,-17.30
2012,11,19,16,54,-17.20
2012,11,19,16,55,-17.20
2012,11,19,16,56,-17.20
2012,11,19,16,57,-17.10
2012,11,19,16,58,-17.10
2012,11,19,16,59,-17.10
2012,11,19,17,00,-17.00
2012,11,19,17,01,-17.00
2012,11,19,17,02,-17.00
2012,11,19,17,03,-17.00
2012,11,19,17,04,-17.10
2012,11,19,17,05,-17.10
2012,11,19,17,06,-17.10
2012,11,19,17,07,-17.10
2012,11,19,17,08,-17.20
2012,11,19,17,09,-17.10
2012,11,19,17,10,-17.20
2012,11,19,17,11,-17.20
2012,11,19,17,12,-17.20
2012,11,19,17,13,-17.20
2012,11,19,17,14,-17.20
2012,11,19,17,15,-17.20
2012,11,19,17,16,-17.20
2012,11,19,17,17,-17.20
2012,11,19,17,18,-17.20
2012,11,19,17,19,-17.30
2012,11,19,17,20,-17.20
2012,11,19,17,21,-17.20
2012,11,19,17,22,-17.30
2012,11,19,17,23,-17.30
2012,11,19,17,24,-17.20
2012,11,19,17,25,-17.20
2012,11,19,17,26,-17.20
2012,11,19,17,27,-17.10
2012,11,19,17,28,-17.10
2012,11,19,17,29,-17.10
2012,11,19,17,30,-17.10
2012,11,19,17,31,-17.00
2012,11,19,17,32,-17.00
2012,11,19,17,33,-17.00
2012,11,19,17,34,-17.00
2012,11,19,17,35,-16.90
2012,11,19,17,36,-16.90
2012,11,19,17,37,-16.90
2012,11,19,17,38,-16.90
2012,11,19,17,39,-16.90
2012,11,19,17,40,-16.80
2012,11,19,17,41,-16.90
2012,11,19,17,42,-16.90
2012,11,19,17,43,-16.90
2012,11,19,17,44,-16.90
2012,11,19,17,45,-16.90
2012,11,19,17,46,-16.90
2012,11,19,17,47,-17.00
2012,11,19,17,48,-17.00
2012,11,19,17,49,-17.00
2012,11,19,17,50,-17.10
2012,11,19,17,51,-17.10
2012,11,19,17,52,-17.10
2012,11,19,17,53,-17.10
2012,11,19,17,54,-17.20
2012,11,19,17,55,-17.20
2012,11,19,17,56,-17.20
2012,11,19,17,57,-17.30
2012,11,19,17,58,-17.30
2012,11,19,17,59,-17.40
2012,11,19,18,00,-17.40
2012,11,19,18,01,-17.40
2012,11,19,18,02,-17.40
2012,11,19,18,03,-17.50
2012,11,19,18,04,-17.50
2012,11,19,18,05,-17.50
2012,11,19,18,06,-17.50
2012,11,19,18,07,-17.50
2012,11,19,18,08,-17.50
2012,11,19,18,09,-17.50
2012,11,19,18,10,-17.40
2012,11,19,18,11,-17.40
2012,11,19,18,12,-17.40
2012,11,19,18,13,-17.40
2012,11,19,18,14,-17.40
2012,11,19,18,15,-17.40
2012,11,19,18,16,-17.40
2012,11,19,18,17,-17.40
2012,11,19,18,18,-17.40
2012,11,19,18,19,-17.30
2012,11,19,18,20,-17.30
2012,11,19,18,21,-17.30
2012,11,19,18,22,-17.20
2012,11,19,18,23,-17.20
2012,11,19,18,24,-17.20
2012,11,19,18,25,-17.20
2012,11,19,18,26,-17.20
2012,11,19,18,27,-17.10
2012,11,19,18,28,-17.10
2012,11,19,18,29,-17.10
2012,11,19,18,30,-17.00
2012,11,19,18,31,-17.00
2012,11,19,18,32,-17.00
2012,11,19,18,33,-16.90
2012,11,19,18,34,-16.90
2012,11,19,18,35,-16.90
2012,11,19,18,36,-16.90
2012,11,19,18,37,-16.80
2012,11,19,18,38,-16.70
2012,11,19,18,39,-16.70
2012,11,19,18,40,-16.60
2012,11,19,18,41,-16.60
2012,11,19,18,42,-16.60
2012,11,19,18,43,-16.60
2012,11,19,18,44,-16.50
2012,11,19,18,45,-16.50
2012,11,19,18,46,-16.50
2012,11,19,18,47,-16.40
2012,11,19,18,48,-16.30
2012,11,19,18,49,-16.30
2012,11,19,18,50,-16.30
2012,11,19,18,51,-16.20
2012,11,19,18,52,-16.20
2012,11,19,18,53,-16.20
2012,11,19,18,54,-16.10
2012,11,19,18,55,-16.10
2012,11,19,18,56,-16.10
2012,11,19,18,57,-16.10
2012,11,19,18,58,-16.00
2012,11,19,18,59,-16.00
2012,11,19,19,00,-16.00
2012,11,19,19,01,-15.90
2012,11,19,19,02,-15.90
2012,11,19,19,03,-15.80
2012,11,19,19,04,-15.80
2012,11,19,19,05,-15.80
2012,11,19,19,06,-15.80
2012,11,19,19,07,-15.70
2012,11,19,19,08,-15.70
2012,11,19,19,09,-15.70
2012,11,19,19,10,-15.70
2012,11,19,19,11,-15.60
2012,11,19,19,12,-15.60
2012,11,19,19,13,-15.60
2012,11,19,19,14,-15.50
2012,11,19,19,15,-15.40
2012,11,19,19,16,-15.40
2012,11,19,19,17,-15.40
2012,11,19,19,18,-15.30
2012,11,19,19,19,-15.30
2012,11,19,19,20,-15.30
2012,11,19,19,21,-15.20
2012,11,19,19,22,-15.20
2012,11,19,19,23,-15.10
2012,11,19,19,24,-15.10
2012,11,19,19,25,-15.10
2012,11,19,19,26,-15.10
2012,11,19,19,27,-15.00
2012,11,19,19,28,-15.00
2012,11,19,19,29,-14.90
2012,11,19,19,30,-14.90
2012,11,19,19,31,-14.90
2012,11,19,19,32,-14.80
2012,11,19,19,33,-14.80
2012,11,19,19,34,-14.80
2012,11,19,19,35,-14.80
2012,11,19,19,36,-14.70
2012,11,19,19,37,-14.70
2012,11,19,19,38,-14.70
2012,11,19,19,39,-14.60
2012,11,19,19,40,-14.60
2012,11,19,19,41,-14.50
2012,11,19,19,42,-14.50
2012,11,19,19,43,-14.50
2012,11,19,19,44,-14.50
2012,11,19,19,45,-14.40
2012,11,19,19,46,-14.40
2012,11,19,19,47,-14.40
2012,11,19,19,48,-14.40
2012,11,19,19,49,-14.40
2012,11,19,19,50,-14.40
2012,11,19,19,51,-14.40
2012,11,19,19,52,-14.30
2012,11,19,19,53,-14.30
2012,11,19,19,54,-14.30
2012,11,19,19,55,-14.30
2012,11,19,19,56,-14.30
2012,11,19,19,57,-14.20
2012,11,19,19,58,-14.20
2012,11,19,19,59,-14.20
2012,11,19,20,00,-14.10
2012,11,19,20,01,-14.10
2012,11,19,20,02,-14.00
2012,11,19,20,03,-13.90
2012,11,19,20,04,-13.90
2012,11,19,20,05,-13.90
2012,11,19,20,06,-13.80
2012,11,19,20,07,-13.80
2012,11,19,20,08,-13.80
2012,11,19,20,09,-13.70
2012,11,19,20,10,-13.70
2012,11,19,20,11,-13.60
2012,11,19,20,12,-13.60
2012,11,19,20,13,-13.60
2012,11,19,20,14,-13.50
2012,11,19,20,15,-13.50
2012,11,19,20,16,-13.50
2012,11,19,20,17,-13.50
2012,11,19,20,18,-13.40
2012,11,19,20,19,-13.40
2012,11,19,20,20,-13.40
2012,11,19,20,21,-13.30
2012,11,19,20,22,-13.30
2012,11,19,20,23,-13.30
2012,11,19,20,24,-13.30
2012,11,19,20,25,-13.20
2012,11,19,20,26,-13.20
2012,11,19,20,27,-13.20
2012,11,19,20,28,-13.10
2012,11,19,20,29,-13.10
2012,11,19,20,30,-13.10
2012,11,19,20,31,-13.10
2012,11,19,20,32,-13.00
2012,11,19,20,33,-13.00
2012,11,19,20,34,-13.00
2012,11,19,20,35,-13.00
2012,11,19,20,36,-12.90
2012,11,19,20,37,-12.90
2012,11,19,20,38,-12.90
2012,11,19,20,39,-12.90
2012,11,19,20,40,-12.80
2012,11,19,20,41,-12.80
2012,11,19,20,42,-12.80
2012,11,19,20,43,-12.70
2012,11,19,20,44,-12.70
2012,11,19,20,45,-12.70
2012,11,19,20,46,-12.70
2012,11,19,20,47,-12.60
2012,11,19,20,48,-12.60
2012,11,19,20,49,-12.60
2012,11,19,20,50,-12.50
2012,11,19,20,51,-12.50
2012,11,19,20,52,-12.50
2012,11,19,20,53,-12.40
2012,11,19,20,54,-12.40
2012,11,19,20,55,-12.40
2012,11,19,20,56,-12.40
2012,11,19,20,57,-12.30
2012,11,19,20,58,-12.30
2012,11,19,20,59,-12.20
2012,11,19,21,00,-12.20
2012,11,19,21,01,-12.20
2012,11,19,21,02,-12.10
2012,11,19,21,03,-12.10
2012,11,19,21,04,-12.10
2012,11,19,21,05,-12.00
2012,11,19,21,06,-12.00
2012,11,19,21,07,-12.00
2012,11,19,21,08,-11.90
2012,11,19,21,09,-11.90
2012,11,19,21,10,-11.90
2012,11,19,21,11,-11.80
2012,11,19,21,12,-11.80
2012,11,19,21,13,-11.80
2012,11,19,21,14,-11.80
2012,11,19,21,15,-11.80
2012,11,19,21,16,-11.80
2012,11,19,21,17,-11.80
2012,11,19,21,18,-11.80
2012,11,19,21,19,-11.80
2012,11,19,21,20,-11.70
2012,11,19,21,21,-11.70
2012,11,19,21,22,-11.70
2012,11,19,21,23,-11.70
2012,11,19,21,24,-11.70
2012,11,19,21,25,-11.70
2012,11,19,21,26,-11.70
2012,11,19,21,27,-11.70
2012,11,19,21,28,-11.70
2012,11,19,21,29,-11.60
2012,11,19,21,30,-11.60
2012,11,19,21,31,-11.60
2012,11,19,21,32,-11.60
2012,11,19,21,33,-11.60
2012,11,19,21,34,-11.60
2012,11,19,21,35,-11.60
2012,11,19,21,36,-11.50
2012,11,19,21,37,-11.50
2012,11,19,21,38,-11.50
2012,11,19,21,39,-11.50
2012,11,19,21,40,-11.40
2012,11,19,21,41,-11.40
2012,11,19,21,42,-11.30
2012,11,19,21,43,-11.30
2012,11,19,21,44,-11.30
2012,11,19,21,45,-11.20
2012,11,19,21,46,-11.20
2012,11,19,21,47,-11.20
2012,11,19,21,48,-11.10
2012,11,19,21,49,-11.10
2012,11,19,21,50,-11.10
2012,11,19,21,51,-11.10
2012,11,19,21,52,-11.10
2012,11,19,21,53,-11.00
2012,11,19,21,54,-11.00
2012,11,19,21,55,-11.00
2012,11,19,21,56,-11.00
2012,11,19,21,57,-11.00
2012,11,19,21,58,-10.90
2012,11,19,21,59,-10.90
2012,11,19,22,00,-10.90
2012,11,19,22,01,-10.90
2012,11,19,22,02,-10.90
2012,11,19,22,03,-10.90
2012,11,19,22,04,-10.90
2012,11,19,22,05,-10.80
2012,11,19,22,06,-10.80
2012,11,19,22,07,-10.80
2012,11,19,22,08,-10.80
2012,11,19,22,09,-10.80
2012,11,19,22,10,-10.70
2012,11,19,22,11,-10.70
2012,11,19,22,12,-10.70
2012,11,19,22,13,-10.60
2012,11,19,22,14,-10.60
2012,11,19,22,15,-10.60
2012,11,19,22,16,-10.60
2012,11,19,22,17,-10.60
2012,11,19,22,18,-10.50
2012,11,19,22,19,-10.50
2012,11,19,22,20,-10.50
2012,11,19,22,21,-10.40
2012,11,19,22,22,-10.40
2012,11,19,22,23,-10.40
2012,11,19,22,24,-10.40
2012,11,19,22,25,-10.30
2012,11,19,22,26,-10.30
2012,11,19,22,27,-10.30
2012,11,19,22,28,-10.30
2012,11,19,22,29,-10.30
2012,11,19,22,30,-10.20
2012,11,19,22,31,-10.20
2012,11,19,22,32,-10.20
2012,11,19,22,33,-10.20
2012,11,19,22,34,-10.20
2012,11,19,22,35,-10.10
2012,11,19,22,36,-10.10
2012,11,19,22,37,-10.10
2012,11,19,22,38,-10.00
2012,11,19,22,39,-10.00
2012,11,19,22,40,-10.00
2012,11,19,22,41,-10.00
2012,11,19,22,42,-9.90
2012,11,19,22,43,-9.90
2012,11,19,22,44,-9.90
2012,11,19,22,45,-9.80
2012,11,19,22,46,-9.80
2012,11,19,22,47,-9.70
2012,11,19,22,48,-9.70
2012,11,19,22,49,-9.70
2012,11,19,22,50,-9.70
2012,11,19,22,51,-9.60
2012,11,19,22,52,-9.60
2012,11,19,22,53,-9.60
2012,11,19,22,54,-9.50
2012,11,19,22,55,-9.50
2012,11,19,22,56,-9.50
2012,11,19,22,57,-9.50
2012,11,19,22,58,-9.40
2012,11,19,22,59,-9.40
2012,11,19,23,00,-9.40
2012,11,19,23,01,-9.40
2012,11,19,23,02,-9.30
2012,11,19,23,03,-9.30
2012,11,19,23,04,-9.30
2012,11,19,23,05,-9.30
2012,11,19,23,06,-9.20
2012,11,19,23,07,-9.20
2012,11,19,23,08,-9.10
2012,11,19,23,09,-9.10
2012,11,19,23,10,-9.10
2012,11,19,23,11,-9.10
2012,11,19,23,12,-9.10
2012,11,19,23,13,-9.10
2012,11,19,23,14,-9.10
2012,11,19,23,15,-9.10
2012,11,19,23,16,-9.10
2012,11,19,23,17,-9.10
2012,11,19,23,18,-9.10
2012,11,19,23,19,-9.20
2012,11,19,23,20,-9.20
2012,11,19,23,21,-9.20
2012,11,19,23,22,-9.30
2012,11,19,23,23,-9.30
2012,11,19,23,24,-9.30
2012,11,19,23,25,-9.30
2012,11,19,23,26,-9.40
2012,11,19,23,27,-9.30
2012,11,19,23,28,-9.40
2012,11,19,23,29,-9.40
2012,11,19,23,30,-9.40
2012,11,19,23,31,-9.40
2012,11,19,23,32,-9.40
2012,11,19,23,33,-9.40
2012,11,19,23,34,-9.50
2012,11,19,23,35,-9.50
2012,11,19,23,36,-9.50
2012,11,19,23,37,-9.60
2012,11,19,23,38,-9.60
2012,11,19,23,39,-9.70
2012,11,19,23,40,-9.70
2012,11,19,23,41,-9.70
2012,11,19,23,42,-9.70
2012,11,19,23,43,-9.80
2012,11,19,23,44,-9.80
2012,11,19,23,45,-9.80
2012,11,19,23,46,-9.80
2012,11,19,23,47,-9.80
2012,11,19,23,48,-9.90
2012,11,19,23,49,-9.90
2012,11,19,23,50,-9.90
2012,11,19,23,51,-9.90
2012,11,19,23,52,-9.90
2012,11,19,23,53,-10.00
2012,11,19,23,54,-10.00
2012,11,19,23,55,-10.00
2012,11,19,23,56,-10.00
2012,11,19,23,57,-10.00
2012,11,19,23,58,-10.00
2012,11,19,23,59,-10.00
